Weather reports worldwide

Advertisment
St. Mary's, United Kingdom (3803): temperature & dewpoint: 16.02.2019 21:00:00 - 22.02.2019 21:00:00 (GMT)St. Mary's, United Kingdom (3803): temperature -20cm: 16.02.2019 21:00:00 - 22.02.2019 21:00:00 (GMT)St. Mary's, United Kingdom (3803): wind speed & gusts: 16.02.2019 21:00:00 - 22.02.2019 21:00:00 (GMT)St. Mary's, United Kingdom (3803): wind direction: 16.02.2019 21:00:00 - 22.02.2019 21:00:00 (GMT)St. Mary's, United Kingdom (3803): reduced air pressure: 16.02.2019 21:00:00 - 22.02.2019 21:00:00 (GMT)St. Mary's, United Kingdom (3803): visibility: 16.02.2019 21:00:00 - 22.02.2019 21:00:00 (GMT)St. Mary's, United Kingdom (3803): precipitation: 16.02.2019 21:00:00 - 22.02.2019 21:00:00 (GMT)
Date & Time tt [°C] td [°C] tt -20cm [°C] ff [km/h] ff [kn] fx [km/h] fx [kn] dd ppp [hPa] vv [km] rr [mm]
22.02.2019 21:00:00 10,4 9,1 - 29 16 - - SE 1028,3 7 0,0
22.02.2019 20:00:00 10,5 9,2 - 31 17 - - SE 1028,6 8 0,0
22.02.2019 19:00:00 10,6 9,3 - 29 16 - - SE 1028,8 8 0,0
22.02.2019 18:00:00 10,5 9,1 - 31 17 - - SE 1028,5 6 0,0
22.02.2019 17:00:00 11,2 9,3 - 34 18 - - SE 1028,6 8 0,0
22.02.2019 16:00:00 11,2 9,1 - 35 19 46 25 SE 1028,7 8 0,0
22.02.2019 15:00:00 11,8 9,2 - 37 20 48 26 SE 1029,1 8 0,0
22.02.2019 14:00:00 11,8 9,2 - 39 21 48 26 SE 1029,1 8 0,0
22.02.2019 13:00:00 11,9 9,6 - 35 19 46 25 SE 1029,2 7 0,0
22.02.2019 12:00:00 11,8 9,5 - 31 17 - - SE 1029,4 8 0,0
22.02.2019 11:00:00 11,9 10,1 - 34 18 - - SSE 1029,7 8 0,0
22.02.2019 10:00:00 11,3 9,9 - 34 18 - - SSE 1029,5 7 0,0
22.02.2019 09:00:00 10,9 9,8 10,0 35 19 - - SSE 1029,1 7 0,0
22.02.2019 08:00:00 10,3 9,6 - 37 20 - - SSE 1028,8 8 0,0
22.02.2019 07:00:00 10,3 9,5 - 35 19 - - S 1028,6 6 0,0
22.02.2019 06:00:00 10,3 9,3 - 34 18 46 25 S 1028,4 7 0,0
22.02.2019 05:00:00 10,4 9,0 - 39 21 48 26 S 1027,7 9 0,0
22.02.2019 04:00:00 10,5 8,5 - 41 22 48 26 S 1027,5 11 0,0
22.02.2019 03:00:00 10,6 8,1 - 41 22 50 27 S 1027,6 11 0,0
22.02.2019 02:00:00 10,5 8,2 - 41 22 50 27 SSE 1027,6 14 0,0
22.02.2019 01:00:00 10,5 8,3 - 41 22 50 27 SSE 1027,3 12 0,0
22.02.2019 00:00:00 10,5 8,2 - 41 22 52 28 SSE 1027,0 12 0,0
21.02.2019 23:00:00 10,6 8,4 - 41 22 52 28 SSE 1026,9 13 0,0
21.02.2019 22:00:00 10,5 8,8 - 41 22 52 28 S 1026,2 10 0,0
21.02.2019 21:00:00 10,6 9,0 - 41 22 52 28 S 1025,5 11 0,0
21.02.2019 20:00:00 10,7 9,0 - 41 22 52 28 S 1025,0 12 0,0
21.02.2019 19:00:00 10,8 9,1 - 39 21 48 26 S 1024,9 13 0,0
21.02.2019 18:00:00 10,9 9,1 - 37 20 46 25 S 1024,5 13 0,0
21.02.2019 17:00:00 11,3 9,3 - 34 18 - - S 1024,0 10 0,0
21.02.2019 16:00:00 11,9 9,7 - 35 19 - - S 1023,9 10 0,0
21.02.2019 15:00:00 12,0 9,7 - 35 19 46 25 S 1023,7 10 0,0
21.02.2019 14:00:00 12,3 9,9 - 37 20 48 26 S 1023,6 10 0,0
21.02.2019 13:00:00 12,2 9,8 - 37 20 - - S 1023,4 10 0,0
21.02.2019 12:00:00 12,1 9,7 - 35 19 - - S 1023,5 10 0,0
21.02.2019 11:00:00 11,8 9,7 - 34 18 - - S 1023,3 14 0,0
21.02.2019 10:00:00 11,3 9,8 - 34 18 - - S 1022,9 10 0,0
21.02.2019 09:00:00 10,8 9,8 9,9 31 17 - - S 1022,7 10 0,0
21.02.2019 08:00:00 10,5 9,5 - 41 22 52 28 S 1022,0 8 0,0
21.02.2019 07:00:00 10,5 9,8 - 41 22 50 27 S 1021,1 11 0,0
21.02.2019 06:00:00 10,6 9,6 - 39 21 48 26 S 1021,0 10 0,0
21.02.2019 05:00:00 10,7 9,3 - 39 21 54 29 S 1020,4 12 0,0
21.02.2019 04:00:00 10,8 9,9 - 42 23 50 27 S 1020,3 10 0,0
21.02.2019 03:00:00 10,9 9,9 - 41 22 48 26 S 1020,4 9 0,0
21.02.2019 02:00:00 10,9 10,0 - 41 22 52 28 S 1020,0 9 0,0
21.02.2019 01:00:00 11,0 10,0 - 44 24 54 29 S 1019,8 9 0,0
21.02.2019 00:00:00 11,0 10,0 - 44 24 55 30 S 1019,4 10 0,0
20.02.2019 23:00:00 10,9 9,9 - 44 24 55 30 S 1019,1 9 0,0
20.02.2019 22:00:00 11,0 10,0 - 46 25 57 31 S 1019,0 8 0,0
20.02.2019 21:00:00 11,0 10,0 - 44 24 57 31 S 1018,5 9 0,0
20.02.2019 20:00:00 10,9 9,8 - 46 25 59 32 S 1018,0 11 0,0
20.02.2019 19:00:00 10,9 9,7 - 46 25 57 31 S 1017,7 9 0,0
20.02.2019 18:00:00 10,9 9,6 - 46 25 57 31 S 1017,2 9 0,0
20.02.2019 17:00:00 10,9 9,4 - 48 26 57 31 S 1016,7 12 0,0
20.02.2019 16:00:00 11,0 9,5 - 44 24 55 30 S 1016,7 11 0,0
20.02.2019 15:00:00 11,1 9,3 - 46 25 57 31 S 1016,6 10 -
20.02.2019 14:00:00 11,4 9,3 - 46 25 54 29 S 1016,8 11 -
20.02.2019 13:00:00 11,1 9,3 - 42 23 50 27 S 1016,9 9 0,0
20.02.2019 12:00:00 10,8 9,2 - 42 23 50 27 S 1016,8 9 0,0
20.02.2019 11:00:00 10,8 9,0 - 44 24 55 30 S 1016,6 9 0,0
20.02.2019 10:00:00 10,4 8,7 - 42 23 54 29 S 1016,1 10 0,0
20.02.2019 09:00:00 10,2 8,7 9,2 46 25 55 30 SSW 1015,6 10 0,2
20.02.2019 08:00:00 10,1 8,5 - 46 25 55 30 SSW 1015,2 9 0,2
20.02.2019 07:00:00 10,3 7,7 - 48 26 59 32 SSW 1014,6 14 0,0
20.02.2019 06:00:00 10,3 7,6 - 42 23 61 33 SSW 1014,7 14 0,0
20.02.2019 05:00:00 10,3 7,1 - 48 26 63 34 SSW 1014,6 17 0,0
20.02.2019 04:00:00 10,2 7,3 - 52 28 59 32 SSW 1014,6 13 0,0
20.02.2019 03:00:00 10,2 7,4 - 48 26 59 32 S 1015,0 16 0,0
20.02.2019 02:00:00 10,2 7,0 - 48 26 57 31 SSW 1015,5 18 0,0
20.02.2019 01:00:00 10,2 7,0 - 46 25 57 31 SSW 1015,7 17 0,0
20.02.2019 00:00:00 10,1 7,2 - 46 25 55 30 SSW 1015,7 18 0,0
19.02.2019 23:00:00 10,2 7,0 - 44 24 59 32 SSW 1015,9 23 0,0
19.02.2019 22:00:00 10,1 6,8 - 44 24 57 31 SSW 1016,0 22 0,0
19.02.2019 21:00:00 10,2 6,8 - 42 23 54 29 SSW 1016,1 19 0,0
19.02.2019 20:00:00 10,1 6,9 - 46 25 55 30 SSW 1016,2 19 0,0
19.02.2019 19:00:00 10,1 6,2 - 46 25 57 31 SSW 1016,1 21 0,0
19.02.2019 18:00:00 10,0 5,9 - 42 23 55 30 SSW 1016,0 21 0,0
19.02.2019 17:00:00 10,1 5,8 - 39 21 59 32 SSW 1016,2 23 0,0
19.02.2019 16:00:00 10,2 5,5 - 42 23 59 32 SSW 1016,6 18 0,0
19.02.2019 15:00:00 10,3 5,7 - 42 23 57 31 SSW 1016,8 35 0,0
19.02.2019 14:00:00 10,4 5,4 - 44 24 59 32 SSW 1017,4 10 0,0
19.02.2019 13:00:00 10,1 5,8 - 37 20 61 33 SSW 1017,8 10 0,0
19.02.2019 12:00:00 10,1 6,0 - 41 22 52 28 SSW 1018,4 10 0,0
19.02.2019 11:00:00 9,3 6,2 - 35 19 48 26 SSW 1018,6 10 0,0
19.02.2019 10:00:00 9,8 5,4 - 31 17 52 28 SSW 1018,7 10 0,0
19.02.2019 09:00:00 9,4 5,6 9,0 28 15 48 26 SSW 1018,6 10 0,0
19.02.2019 08:00:00 8,8 5,3 - 28 15 - - SSW 1018,5 10 0,0
19.02.2019 07:00:00 8,5 5,2 - 29 16 - - SW 1018,4 40 0,0
19.02.2019 06:00:00 7,8 5,0 - 22 12 55 30 SW 1018,6 35 0,2
19.02.2019 05:00:00 8,3 4,7 - 22 12 - - SW 1018,7 30 0,0
19.02.2019 04:00:00 8,6 3,9 - 26 14 - - WSW 1018,8 35 0,0
19.02.2019 03:00:00 8,4 3,9 - 22 12 - - WSW 1019,1 30 0,0
19.02.2019 02:00:00 8,3 4,6 - 18 10 - - WSW 1019,4 26 0,0
19.02.2019 01:00:00 8,3 4,8 - 21 11 - - SW 1019,3 24 0,0
19.02.2019 00:00:00 8,1 4,9 - 18 10 - - W 1019,2 25 0,0
18.02.2019 23:00:00 8,3 5,0 - 18 10 - - WSW 1019,2 27 0,0
18.02.2019 22:00:00 7,8 4,4 - 16 9 - - W 1019,0 40 0,2
18.02.2019 21:00:00 8,2 4,7 - 21 11 - - W 1018,6 30 0,0
18.02.2019 20:00:00 8,1 4,7 - 21 11 - - W 1018,0 30 0,0
18.02.2019 19:00:00 8,4 4,6 - 24 13 - - W 1017,7 30 0,0
18.02.2019 18:00:00 8,6 4,1 - 24 13 - - W 1016,9 26 0,0
18.02.2019 17:00:00 9,5 4,3 - 24 13 - - W 1016,6 30 0,0
18.02.2019 16:00:00 10,1 4,3 - 28 15 - - W 1016,4 10 0,0
18.02.2019 15:00:00 10,6 4,4 - 28 15 - - W 1016,0 10 0,0
18.02.2019 14:00:00 10,9 4,7 - 26 14 - - W 1015,9 10 0,0
18.02.2019 13:00:00 10,9 4,5 - 26 14 - - W 1016,0 19 0,0
18.02.2019 12:00:00 10,7 5,3 - 21 11 - - W 1016,0 10 0,0
18.02.2019 11:00:00 10,6 6,6 - 24 13 - - W 1015,6 10 0,0
18.02.2019 10:00:00 9,6 6,2 - 21 11 - - W 1015,1 14 0,0
18.02.2019 09:00:00 8,3 5,4 9,7 21 11 - - W 1014,7 10 0,0
18.02.2019 08:00:00 8,2 6,4 - 16 9 - - W 1014,1 10 0,0
18.02.2019 07:00:00 8,1 6,6 - 15 8 - - W 1013,4 15 0,2
18.02.2019 06:00:00 9,1 6,8 - 22 12 - - WSW 1013,0 15 0,0
18.02.2019 05:00:00 8,8 6,1 - 29 16 - - WSW 1013,0 3,8 0,2
18.02.2019 04:00:00 9,8 7,9 - 29 16 48 26 SW 1012,7 10 0,0
18.02.2019 03:00:00 9,9 7,7 - 35 19 48 26 SSW 1012,8 13 0,0
18.02.2019 02:00:00 9,9 7,8 - 34 18 46 25 SSW 1013,2 14 0,0
18.02.2019 01:00:00 9,9 7,8 - 34 18 - - SSW 1013,4 16 0,0
18.02.2019 00:00:00 10,0 7,4 - 34 18 48 26 SSW 1013,2 17 0,0
17.02.2019 23:00:00 9,9 7,8 - 34 18 46 25 SSW 1013,0 16 0,0
17.02.2019 22:00:00 10,1 8,0 - 31 17 - - SSW 1013,0 14 0,0
17.02.2019 21:00:00 10,0 8,2 - 35 19 46 25 SSW 1012,8 14 0,0
17.02.2019 20:00:00 10,1 8,2 - 35 19 46 25 SSW 1012,4 13 0,0
17.02.2019 19:00:00 10,2 8,4 - 35 19 57 31 SSW 1012,3 10 0,0
17.02.2019 18:00:00 10,5 8,0 - 41 22 59 32 SSW 1011,6 12 0,0
17.02.2019 17:00:00 10,9 7,7 - 46 25 57 31 SSW 1011,0 12 0,0
17.02.2019 16:00:00 10,9 7,3 - 48 26 61 33 SSW 1011,2 13 0,0
17.02.2019 15:00:00 11,1 7,4 - 41 22 54 29 SSW 1011,3 12 0,0
17.02.2019 14:00:00 11,2 7,9 - 39 21 50 27 SSW 1011,4 10 0,0
17.02.2019 13:00:00 11,4 8,2 - 39 21 46 25 SSW 1011,4 12 0,0
17.02.2019 12:00:00 11,6 7,9 - 35 19 48 26 SSW 1011,5 22 -
17.02.2019 11:00:00 11,3 8,9 - 31 17 - - SSW 1011,2 12 0,0
17.02.2019 10:00:00 10,7 9,3 - 31 17 50 27 SSW 1010,8 9 0,0
17.02.2019 09:00:00 10,7 9,3 9,7 34 18 50 27 SSW 1010,4 10 0,0
17.02.2019 08:00:00 10,6 9,2 - 37 20 55 30 SSW 1009,5 11 0,2
17.02.2019 07:00:00 10,6 9,4 - 42 23 72 39 SSW 1009,0 10 0,0
17.02.2019 06:00:00 11,1 10,2 - 54 29 67 36 S 1008,1 5 0,0
17.02.2019 05:00:00 10,9 10,1 - 52 28 65 35 S 1008,6 9 0,0
17.02.2019 04:00:00 10,8 10,1 - 50 27 63 34 S 1009,3 6 0,0
17.02.2019 03:00:00 10,6 9,9 - 50 27 61 33 S 1009,9 6 0,0
17.02.2019 02:00:00 10,7 9,8 - 46 25 61 33 S 1010,5 9 0,0
17.02.2019 01:00:00 10,6 9,6 - 50 27 63 34 S 1010,9 9 0,0
17.02.2019 00:00:00 10,6 9,3 - 48 26 65 35 S 1011,7 11 0,0
16.02.2019 23:00:00 10,4 9,3 - 50 27 59 32 S 1012,4 9 0,0
16.02.2019 22:00:00 10,4 9,4 - 46 25 57 31 S 1013,7 11 0,0
16.02.2019 21:00:00 10,3 9,5 - 46 25 55 30 S 1014,5 10 0,0

tt = temperature
td = dewpoint
tt -20cm = temperature -20cm
ff = wind speed
fx = gusts
dd = wind direction
ppp = reduced air pressure
vv = visibility
rr = precipitation

Next stations